SCP
0 0 0 0 0 0 0 0 0 0 0 0 0 0 0 0 0 0 0 0 0 0 0 0 0 0 0 0 0 0 0 0 0 0 0 0 0 0 0 0 0 0 0
0 0 0 0 0 0 0 0 0 0 0 0 0 0 0 0 0 0 0 0 0 0 0 0 0 0 0 0 0 0 0 0 0 0 0 0 0 0 0 0 0 0 0
0 0 0 0 0 0 0 0 0 0 0 0 0 0 0 0 0 0 0 0 0 0 0 0 0 0 0 0 0 0 0 0 0 0 0 0 0 0 0 0 0 0 0
0 0 0 -0 -0 0 0 0 0 0 0 0 0 0 0 0 0 0 0 0 0 0 0 0 0 0 0 0 0 0 0 0 0 0 0 0 0 0 0 0 0 0 0
0 0 0 -0 -0 0 0 0 0 0 0 0 0 0 0 0 0 0 0 0 0 0 0 0 0 0 0 0 0 0 0 0 0 0 0 0 0 0 0 0 0 0 0
0 0 0 0 0 0 0 0 0 0 0 0 0 0 0 0 0 0 0 0 0 0 0 0 0 0 0 0 0 0 0 0 0 0 0 0 0 0 0 0 0 0 0
0 0 0 0 0 0 0 0 0 0 0 0 0 0 0 0 0 0 0 0 0 0 0 0 0 0 0 0 0 0 0 0 0 0 0 0 0 0 0 0 0 0 0
0 0 0 0 0 0 0 0 0 0 0 0 0 0 0 0 0 0 0 0 0 0 0 0 0 0 0 0 0 0 0 0 0 0 0 0 0 0 0 0 0 0 0
0 0 0 0 0 0 0 0 0 0 0 -0 -0 0 0 0 0 0 0 0 0 0 0 0 0 0 0 0 0 0 0 0 0 0 0 0 0 0 0 0 0 0 0
0 0 0 0 0 0 0 0 0 0 0 0 -0 0 0 0 0 0 0 0 0 0 0 -0 0 0 0 0 0 0 0 0 0 0 0 0 0 0 0 0 0 0 0
0 0 0 0 0 0 0 0 0 0 0 0 0 0 0 0 0 0 0 0 0 0 -0 -0 0 0 0 0 0 0 0 0 0 0 0 0 0 0 0 0 0 0 0
0 0 0 0 0 0 0 0 0 0 0 0 0 0 0 0 0 0 0 0 0 0 0 0 0 0 0 0 0 0 0 0 0 0 0 0 0 0 0 0 0 0 0
0 0 0 0 0 0 0 0 0 0 0 0 0 0 0 0 0 0 0 0 0 0 0 0 0 0 0 0 0 0 0 0 0 0 0 0 0 0 0 0 0 0 0
0 0 0 0 0 0 0 0 0 0 0 0 0 0 0 0 0 0 0 0 0 0 0 0 0 0 0 0 0 0 0 0 0 0 0 0 0 0 0 0 0 0 0
0 0 0 0 0 0 0 0 0 0 0 0 0 0 0 0 0 0 0 0 0 0 0 0 0 0 0 0 0 0 0 0 0 0 0 0 0 0 0 0 0 0 0
0 0 0 0 0 0 0 0 0 0 0 0 0 0 0 0 0 0 0 0 0 0 0 0 0 0 0 0 0 0 0 0 0 0 0 0 0 0 0 0 0 0 0
0 0 0 0 0 0 0 0 0 0 0 0 0 0 0 0 0 0 0 0 0 0 0 0 0 0 0 0 0 0 0 0 0 0 0 0 0 0 0 0 0 0 0
0 0 0 0 0 0 0 0 0 0 0 0 0 0 0 0 0 0 0 0 0 0 0 0 0 0 0 0 0 0 0 0 0 0 0 0 0 0 0 0 0 0 0
0 0 0 0 0 0 0 0 0 0 0 0 0 0 0 0 0 0 0 0 0 0 0 0 0 0 0 0 0 0 0 0 0 0 0 0 0 0 0 0 0 0 0
0 0 0 0 0 0 0 0 0 0 0 0 0 0 0 0 0 0 0 0 0 0 0 0 0 0 0 0 0 0 0 0 0 0 0 0 0 0 0 0 0 0 0
0 0 0 0 0 0 0 0 0 0 0 0 0 0 0 0 0 0 0 0 0 0 0 0 0 0 0 0 0 0 0 0 0 0 0 0 0 0 0 0 0 0 0
0 0 0 0 0 0 0 0 0 0 0 0 0 0 0 0 0 0 0 0 0 0 0 0 0 0 0 0 0 0 0 0 0 0 0 0 0 0 0 0 0 0 0
0 0 0 0 0 0 0 0 0 0 0 0 0 0 0 0 0 0 0 0 0 0 0 0 0 0 0 0 0 0 0 0 0 0 0 0 0 0 0 0 0 0 0
0 0 0 0 0 0 0 0 0 0 0 0 0 0 0 0 0 0 0 0 0 0 0 0 0 0 0 0 0 0 0 0 0 0 0 0 0 0 0 0 0 0 0
0 0 0 0 0 0 0 0 0 0 0 0 0 0 0 0 0 0 0 0 0 0 0 0 0 0 0 0 0 0 0 0 0 0 0 0 0 0 0 0 0 0 0
0 0 0 0 0 0 0 0 0 0 0 0 0 0 0 0 0 0 0 0 0 0 0 0 0 0 0 0 0 0 0 0 0 0 0 0 0 0 0 0 0 0 0
Wind_Speed
5 6 7 7 7 8 8 7 7 7 5 3 3 3 3 4 3 3 4 4 4 4 4 4 4 4 4 5 5 3 3 3 2 2 0 1 0 2 4 4 5 7 7
6 7 7 7 7 7 8 7 7 7 6 4 4 3 4 3 3 3 3 4 4 4 4 4 4 5 4 5 5 4 3 2 3 3 3 0 2 1 2 3 4 6 5
5 6 7 6 7 7 8 8 8 7 7 7 4 4 3 3 2 3 3 3 4 4 4 4 4 5 5 5 6 6 6 4 2 2 4 4 4 2 1 2 3 4 4
4 5 6 7 7 7 8 7 7 7 7 6 5 4 3 3 3 3 3 4 4 4 4 4 4 5 5 5 6 6 5 5 4 3 2 2 4 4 2 1 1 3 4
4 5 6 6 7 7 7 7 7 7 7 7 5 4 4 3 3 3 4 4 4 4 4 4 4 4 4 5 6 5 6 5 5 4 3 2 1 2 3 2 1 1 2
5 5 6 6 6 6 6 7 7 7 7 7 6 5 5 5 5 5 4 4 3 3 4 3 3 4 4 5 6 5 6 5 5 4 4 4 3 3 3 3 2 2 2
4 5 6 6 7 7 7 7 7 7 8 7 7 6 6 5 4 4 4 4 3 3 4 4 3 3 3 4 4 5 6 6 6 6 5 4 4 3 3 3 2 2 1
3 4 5 5 5 7 7 7 7 7 7 7 7 6 6 4 4 4 4 4 3 3 4 4 2 2 1 2 3 4 5 5 6 7 6 4 4 3 3 4 4 2 1
3 4 4 4 5 5 6 6 6 6 7 7 6 6 7 6 6 6 5 4 4 4 5 5 4 2 1 1 2 2 3 4 5 5 6 4 4 4 3 3 4 5 4
3 4 4 4 4 4 4 5 5 5 5 6 6 6 7 7 6 6 7 7 7 7 7 7 6 5 4 3 1 1 1 2 3 3 5 5 4 4 4 4 3 3 4
3 4 3 3 4 4 4 4 5 5 6 6 6 7 7 7 7 6 7 7 7 8 8 7 7 7 7 5 3 2 2 2 2 2 4 4 4 4 3 3 3 3 3
3 3 3 3 3 4 4 4 4 4 5 5 5 6 7 7 7 7 7 7 8 8 8 7 7 7 6 6 5 4 3 2 2 2 3 3 3 3 3 3 4 3 3
4 3 3 3 3 3 3 3 3 3 4 4 5 6 7 7 7 7 7 7 7 7 8 8 8 7 6 6 6 5 4 3 2 2 2 3 3 3 2 3 4 3 3
4 3 3 3 3 2 2 2 3 2 3 4 5 6 6 6 6 6 6 7 7 7 7 7 7 7 6 6 6 6 5 4 3 2 2 2 3 3 3 3 3 3 3
4 3 3 3 2 2 1 1 1 2 2 4 4 5 5 5 5 6 6 6 6 7 6 7 7 7 6 6 6 5 5 4 4 4 3 2 2 3 3 3 3 4 3
4 3 3 2 3 2 2 1 0 1 2 3 3 4 4 5 5 5 5 6 6 6 6 7 7 7 6 10 10 6 5 4 4 4 3 3 3 3 3 4 5 6 5
4 4 3 3 4 3 3 2 1 1 3 2 2 3 4 4 5 5 5 5 5 5 6 6 7 7 8 11 11 9 5 5 5 4 4 3 4 4 3 5 6 4 4
5 3 2 2 3 2 3 2 2 2 3 2 2 2 3 4 4 5 5 4 4 4 4 5 6 6 9 12 10 10 6 5 5 5 4 4 3 3 4 5 5 5 4
6 4 3 3 3 3 4 4 3 2 2 1 0 1 1 3 4 4 4 3 3 4 4 4 6 7 8 13 11 9 4 5 5 5 5 4 4 5 6 6 6 6 5
5 4 3 3 3 3 5 5 4 3 2 2 1 1 0 1 2 3 3 3 2 3 4 5 5 6 7 12 12 9 4 5 4 5 5 7 5 6 6 5 5 6 4
5 5 4 4 4 5 6 5 4 4 4 3 1 1 1 1 1 2 3 3 3 3 4 4 5 6 8 11 13 11 4 3 4 4 4 4 7 7 7 5 4 5 5
6 5 4 4 4 5 6 6 5 5 4 3 2 1 1 1 1 2 3 3 3 4 4 4 4 5 6 8 10 12 9 5 4 3 3 3 6 7 6 5 6 8 7
7 5 5 5 4 5 6 7 6 5 4 3 3 2 1 1 0 1 2 2 3 3 2 2 3 3 4 6 11 11 10 8 4 2 4 6 7 7 5 7 8 6 4
7 6 6 5 5 6 7 7 7 6 5 4 4 3 3 2 1 1 1 1 1 1 1 1 1 2 3 4 5 5 5 6 4 3 5 7 9 7 6 6 5 4 3
7 6 6 7 7 6 7 7 7 6 5 4 4 4 4 3 2 1 1 1 2 2 2 1 1 1 2 4 5 3 3 2 2 2 3 4 4 4 4 4 4 3 3
7 7 7 7 7 7 7 7 7 7 6 4 4 4 3 3 3 2 1 2 3 3 3 3 3 2 3 5 5 5 5 4 3 4 3 3 3 3 3 3 3 3 3
Wind_Direction
354 359 358 356 352 348 344 339 338 333 330 321 312 305 298 292 291 283 272 267 258 251 240 237 223 211 202 200 194 189 195 197 164 128 88 342 263 190 187 192 188 193 195
355 350 349 349 347 341 339 340 340 332 330 318 296 269 269 270 271 284 292 278 270 262 251 236 224 211 207 205 198 185 181 192 167 145 132 137 335 306 213 185 185 189 185
353 341 341 339 339 341 339 338 331 330 328 328 321 314 308 305 311 309 302 292 283 269 257 244 230 217 205 207 203 194 182 186 192 172 154 158 200 223 279 205 180 172 171
344 338 338 337 336 333 335 333 331 331 330 334 338 333 324 308 291 292 289 295 292 278 260 248 235 225 213 210 210 200 189 176 188 198 202 170 157 156 185 285 199 166 167
339 337 336 330 330 333 336 338 338 336 334 338 339 334 328 308 306 313 315 311 301 287 274 255 239 231 222 213 206 198 191 186 188 182 173 170 157 143 147 180 197 175 180
334 336 337 338 334 336 338 341 343 342 344 347 347 348 343 337 340 338 331 323 312 302 293 273 250 236 227 219 210 201 197 197 194 189 179 170 169 177 163 166 180 189 202
330 334 339 342 338 339 342 343 346 346 346 350 350 348 346 343 343 334 326 328 326 316 313 305 269 247 233 222 208 199 203 198 193 197 199 195 190 161 158 156 159 170 196
324 326 326 328 329 332 337 342 347 348 348 351 350 352 352 351 347 339 336 336 329 318 322 324 309 287 256 227 201 194 202 194 197 203 199 194 198 181 168 163 153 154 179
321 322 324 329 326 329 334 337 345 350 350 351 352 356 358 1 0 1 0 357 356 358 2 3 8 356 349 291 193 192 198 189 197 199 197 194 195 189 183 169 161 159 177
308 316 321 320 319 323 331 340 348 350 350 357 2 9 2 4 7 12 16 14 11 15 17 18 23 24 21 22 40 148 177 175 183 185 186 190 189 182 181 179 174 167 167
281 289 297 302 311 328 340 347 351 356 358 2 7 12 9 9 16 21 18 16 18 20 21 19 23 27 25 26 35 48 91 124 145 159 171 179 173 173 177 171 167 168 160
257 271 285 304 318 327 337 348 354 360 360 5 14 14 13 16 20 19 18 21 23 22 23 21 24 27 27 25 30 37 55 87 114 132 141 161 164 173 173 170 170 169 167
258 275 291 297 300 310 326 342 356 4 7 19 23 18 15 17 18 15 15 18 21 21 21 23 23 22 22 24 26 34 43 63 80 102 141 155 150 162 171 168 166 167 169
250 253 270 279 286 297 306 335 352 9 25 28 27 21 13 13 13 13 15 16 19 23 20 20 18 18 20 25 25 32 37 46 55 70 97 123 146 158 159 160 161 152 154
234 234 243 256 268 281 293 332 7 22 39 40 29 14 7 12 14 15 14 16 20 23 16 20 17 13 17 25 28 32 42 49 55 57 65 76 106 143 153 155 159 152 152
220 223 231 234 237 230 219 200 91 41 60 57 31 12 12 11 10 10 12 15 15 12 17 18 16 17 19 27 36 44 42 48 59 56 44 53 57 77 113 147 156 158 158
204 209 225 232 226 218 200 178 171 104 82 71 38 17 15 13 6 10 15 13 8 11 15 13 12 10 8 27 40 49 55 55 51 49 46 52 54 62 72 87 93 106 129
194 202 211 212 212 199 176 155 132 106 97 85 46 17 17 12 5 11 9 2 1 8 11 13 11 12 14 30 43 54 52 56 50 45 46 55 47 62 86 89 80 71 66
191 197 197 190 188 178 164 137 127 114 106 110 57 341 12 14 8 3 356 351 3 11 11 13 18 20 11 30 47 56 48 55 45 37 41 57 59 69 90 95 93 81 66
179 179 168 163 161 170 151 138 147 146 164 199 217 232 304 10 4 351 349 354 6 11 19 25 21 22 15 26 43 50 49 53 41 29 30 44 59 77 87 96 102 98 84
184 170 165 176 184 167 148 150 169 195 211 205 191 195 238 284 353 2 4 12 29 34 31 28 16 16 16 19 34 44 50 51 50 39 24 22 46 70 78 85 93 107 103
186 176 177 198 196 172 157 166 196 215 212 199 195 220 250 276 56 49 27 27 44 50 34 28 18 8 5 13 23 36 43 51 63 43 14 18 49 67 75 84 100 102 95
196 190 188 202 206 188 173 182 209 209 202 199 212 227 231 238 116 96 65 39 41 54 40 36 22 355 354 2 18 25 30 38 51 37 39 53 62 65 64 78 96 95 93
200 198 191 201 214 207 199 200 202 197 195 205 217 214 207 218 216 141 115 92 63 59 51 37 10 348 348 355 357 0 7 19 33 30 39 57 65 63 62 67 69 72 92
201 195 196 205 215 207 206 209 200 188 194 210 217 213 209 205 201 195 196 193 220 210 193 215 238 308 332 320 338 356 357 355 11 54 47 47 51 55 52 55 62 70 83
198 199 205 210 215 206 208 210 202 189 187 203 213 210 206 205 198 197 245 278 245 252 237 224 220 253 269 305 340 359 8 19 77 82 69 63 66 74 78 81 71 68 84